Wind_Speed
13 14 14 15 16 16 17 17 17 16 15 13 13 15 16 16 17 18 20 21 22 23 24 25 25 24 22 21 22 23 25 27 29 32 34 35 36 37 37 37 37 38 39 40 41 41 40 37 35 35 34 32 31 32 32 32 31 29 26 24 23 22 22 24 28 32 36 38 39 39 40 38 36 37 39 40 42 44 46 47 46 47 48 48 48 47 47 48
14 14 14 15 16 16 17 17 16 15 14 13 13 15 16 17 17 19 20 21 22 23 24 24 24 23 22 21 21 23 25 27 29 32 34 34 35 36 36 36 36 37 39 40 40 39 37 35 34 33 31 30 30 30 30 28 26 24 22 20 19 18 20 22 25 30 33 36 37 36 36 35 34 36 38 40 43 45 46 47 46 47 48 48 48 48 49 51
14 14 14 15 16 16 16 16 16 15 14 13 13 15 16 17 18 19 21 21 22 23 24 24 24 23 21 20 20 23 25 27 29 31 33 33 34 35 34 34 35 37 39 40 39 37 35 33 33 31 29 29 29 29 28 26 23 20 18 16 15 15 17 19 22 26 29 32 33 32 33 33 33 35 37 40 43 45 46 47 46 46 47 47 49 50 50 51
14 14 14 15 15 16 16 16 15 14 13 13 13 15 17 18 18 19 21 21 22 23 24 24 24 22 21 20 20 22 25 27 28 30 31 32 33 32 32 33 34 36 39 39 37 35 33 31 30 28 27 29 28 27 26 23 19 17 14 11 10 11 13 16 18 20 23 25 27 29 31 32 33 35 37 40 43 45 46 47 45 45 46 48 50 51 50 50
14 14 15 15 15 15 16 15 15 14 13 13 14 15 17 18 19 20 21 21 22 23 24 24 24 22 20 19 20 22 24 26 28 29 30 31 31 31 31 33 34 36 38 38 36 33 31 31 29 27 28 29 26 25 22 17 16 14 10 7 6 7 8 11 13 15 16 18 22 26 29 31 33 35 37 40 43 46 46 45 44 45 47 48 50 51 49 50
14 15 15 15 15 15 15 15 14 13 12 13 14 15 17 18 19 20 21 22 22 23 24 24 23 21 19 19 20 21 23 26 27 28 29 30 31 30 31 33 33 35 37 36 34 32 31 30 27 26 27 26 23 20 17 17 16 12 7 5 4 4 4 6 8 10 12 15 19 24 28 30 32 35 37 39 43 45 44 44 44 46 48 50 50 48 48 48
15 15 15 15 15 15 15 15 14 13 12 13 13 15 17 18 19 20 21 22 22 23 24 24 22 21 19 18 19 21 23 25 27 27 28 29 31 30 31 32 32 35 37 36 33 32 31 29 25 25 26 23 20 17 18 19 17 13 9 6 4 3 3 3 5 7 10 14 19 24 27 29 32 33 35 39 43 45 44 44 45 48 49 51 49 40 41 44
15 15 15 15 15 15 15 14 13 12 12 12 13 15 16 18 19 20 22 22 22 23 23 23 22 21 19 17 18 21 23 25 27 27 27 29 30 30 32 32 32 34 37 36 34 32 31 28 25 24 24 21 17 17 20 20 18 15 12 8 6 4 2 2 5 7 10 15 19 23 24 27 29 32 36 39 43 44 44 46 48 50 49 51 52 39 35 42
16 15 15 15 15 15 14 14 13 12 11 12 13 15 16 17 19 20 22 22 23 23 23 23 22 20 18 17 19 21 23 25 27 26 27 29 30 31 32 32 32 34 36 36 33 32 30 27 25 24 23 18 14 16 20 21 19 17 13 10 9 7 4 0 4 6 9 14 18 20 22 24 27 32 36 39 43 44 44 48 50 51 49 49 52 37 27 35
17 15 14 14 15 14 14 13 13 12 11 12 13 14 16 17 19 20 21 22 22 22 22 22 21 19 18 18 20 21 23 26 27 27 27 29 30 31 32 33 32 33 35 35 33 31 30 26 24 23 21 16 13 14 19 20 19 16 13 11 10 9 6 3 3 4 7 11 15 18 21 22 25 30 32 37 43 43 46 51 50 50 49 47 53 41 25 31
17 15 14 14 14 14 13 13 12 12 11 12 13 14 16 17 19 20 21 22 22 22 21 20 19 18 18 19 20 21 23 26 28 27 27 29 30 32 33 33 33 32 33 34 31 30 29 25 23 23 19 15 13 14 19 19 17 15 13 11 10 9 7 6 5 4 5 8 14 17 19 21 24 27 28 34 41 44 45 46 46 49 48 47 54 45 29 34
18 16 15 14 14 13 12 12 12 12 11 12 13 14 15 16 18 20 21 22 22 21 21 20 18 18 18 18 19 21 23 26 27 27 27 29 30 31 32 33 33 31 31 32 31 28 27 24 21 22 19 15 13 14 17 17 16 14 12 11 10 9 8 8 6 4 3 6 12 17 18 19 21 25 27 29 38 43 39 38 41 46 47 47 50 39 27 35
19 17 15 15 14 13 12 12 11 11 11 12 13 14 15 16 18 19 21 22 22 21 20 19 18 17 17 18 19 21 23 25 26 26 27 28 28 30 31 31 31 31 29 30 30 27 25 24 20 20 19 15 13 14 16 16 16 14 13 12 11 10 9 8 7 4 2 5 10 16 18 18 19 21 23 26 31 32 28 33 39 44 47 50 53 38 28 38
19 17 16 15 14 12 11 11 11 11 11 12 13 14 15 16 17 19 21 22 21 20 19 18 17 17 17 17 18 20 22 24 25 26 26 27 28 30 29 28 29 30 28 28 29 27 25 24 21 19 19 16 13 14 15 15 15 14 13 12 10 10 11 10 8 6 3 5 9 14 16 15 15 15 16 21 24 21 24 34 40 47 49 51 52 31 22 37
19 18 16 15 14 12 11 11 10 10 11 12 13 14 14 15 17 19 20 21 20 20 19 16 16 16 16 17 17 18 21 23 24 25 25 27 29 30 29 26 27 28 27 26 26 26 25 23 21 18 18 16 14 13 13 14 14 14 12 11 11 9 10 10 9 9 6 6 9 13 11 8 11 12 13 18 22 22 25 33 38 47 50 51 46 18 15 36
19 18 17 15 14 12 10 10 10 10 11 12 13 14 14 15 17 19 20 21 20 19 17 15 15 15 16 17 16 17 20 21 23 23 25 27 29 30 28 25 25 27 26 23 23 25 25 22 20 18 17 16 15 13 13 13 14 13 11 11 11 8 7 9 11 13 10 8 11 12 6 6 11 12 15 19 24 23 22 26 33 44 47 49 47 23 21 41
19 18 17 15 14 12 10 10 10 9 10 13 14 14 15 15 16 20 20 20 20 18 16 15 14 14 15 15 16 17 18 19 21 22 24 26 28 28 26 25 25 26 26 23 22 25 25 22 19 17 16 15 14 13 12 11 12 12 10 10 10 8 9 12 14 15 14 12 15 11 5 10 14 11 14 17 22 21 19 24 29 38 40 36 38 26 33 51
19 18 17 15 14 12 10 10 10 9 10 12 14 15 16 15 16 20 20 19 19 18 16 15 15 14 13 13 15 16 16 17 19 21 23 25 26 26 25 24 25 26 26 23 23 24 25 24 20 17 16 15 13 12 10 9 10 11 10 10 11 11 12 15 16 15 13 13 12 6 7 14 13 10 10 13 21 21 20 26 26 31 34 26 21 15 31 48
18 18 17 15 14 12 10 10 10 9 10 11 14 15 17 17 17 19 19 19 18 17 15 14 14 14 13 12 13 14 14 16 17 19 22 23 24 25 23 22 23 25 24 24 23 23 24 24 22 19 16 15 14 12 11 10 10 10 10 10 11 11 13 17 18 15 12 10 7 4 11 16 12 11 11 14 21 22 20 23 18 18 22 17 14 15 23 34
17 17 16 15 14 12 10 10 9 9 10 11 13 15 17 18 17 18 18 18 18 17 16 14 13 13 12 12 13 12 13 15 16 19 22 22 23 24 22 20 21 22 23 23 23 22 22 23 23 20 17 16 15 14 13 11 10 9 10 9 9 10 13 16 17 15 11 8 7 9 14 14 11 10 11 16 21 21 19 17 10 10 14 13 14 17 20 22
16 16 16 15 14 12 11 10 9 8 10 12 13 15 16 18 19 18 18 17 18 18 16 14 13 12 12 12 12 13 14 15 16 18 21 21 22 23 22 20 19 20 23 23 23 22 21 21 22 20 18 16 15 15 14 12 11 10 9 8 8 8 11 14 15 14 12 11 11 14 15 12 10 8 7 13 20 20 18 15 8 5 7 8 11 14 15 16
16 15 15 15 14 13 11 11 10 8 9 12 14 15 16 18 19 19 19 18 18 18 17 15 13 13 12 12 12 14 15 16 16 17 19 20 21 22 23 22 20 19 20 21 22 23 20 19 20 20 19 18 15 14 13 13 12 10 9 8 7 6 7 10 12 13 14 14 12 14 14 11 10 8 9 9 15 17 16 14 10 5 1 4 6 9 11 13
16 15 14 14 14 13 12 12 11 9 10 12 14 15 16 16 18 19 19 19 19 18 18 16 14 13 13 12 13 14 15 16 16 17 18 19 20 22 24 24 22 20 18 18 20 21 21 20 20 19 19 19 17 15 13 12 12 11 9 8 7 6 6 6 8 11 14 13 10 11 13 10 10 9 9 10 10 9 9 10 10 8 4 1 2 8 9 10
16 15 14 13 13 13 12 12 11 10 11 12 14 15 15 15 16 17 18 18 18 18 17 17 15 14 13 13 12 13 16 16 15 16 18 18 19 21 23 23 24 22 18 17 17 19 20 20 20 19 19 19 18 17 15 13 11 10 9 8 7 6 6 5 5 8 13 13 10 10 11 10 9 8 7 10 11 9 7 7 7 5 3 3 5 7 8 11
16 15 15 13 13 13 13 13 12 11 12 13 14 15 15 15 15 16 17 18 18 17 17 16 15 15 14 13 11 12 14 15 14 15 17 18 18 21 23 23 23 22 18 15 15 17 19 19 19 19 19 18 18 17 15 14 12 10 8 6 5 6 6 5 4 6 11 13 11 10 11 11 9 7 7 9 10 10 9 8 7 7 5 6 10 8 8 12
16 15 15 14 13 13 13 13 12 12 13 13 15 16 15 15 15 16 17 18 18 17 16 15 15 14 14 13 11 11 13 14 13 14 15 16 18 19 20 21 23 23 18 14 15 16 17 18 19 19 18 18 17 16 15 14 13 11 9 7 6 6 6 5 5 6 10 12 12 12 11 10 8 8 8 9 10 10 9 7 8 7 6 9 12 10 10 14
16 15 15 15 13 13 13 14 13 13 13 14 15 16 15 15 15 16 17 18 19 17 16 15 14 13 13 12 10 11 12 13 13 13 14 16 17 17 18 19 21 22 19 16 15 15 15 17 18 18 18 18 16 15 15 14 14 13 12 11 10 10 10 9 7 8 10 10 10 11 10 8 8 9 9 9 10 10 8 8 8 9 9 11 12 12 13 16
17 15 15 15 14 13 13 14 14 13 13 15 15 15 15 15 15 16 17 18 18 17 16 15 15 14 13 12 10 11 13 13 13 12 13 14 15 16 16 17 19 20 20 18 15 14 14 15 16 17 17 17 15 13 13 13 13 13 12 12 13 13 13 12 10 9 9 9 9 9 9 9 8 8 9 8 9 9 8 8 10 12 12 13 14 15 16 17
17 16 15 15 15 14 13 14 14 14 14 15 15 15 14 15 15 16 17 17 16 16 17 17 16 15 15 12 10 11 13 13 13 12 12 13 13 15 15 15 17 18 19 20 18 15 14 14 15 15 16 16 14 12 12 12 11 11 11 11 11 11 12 12 11 10 9 10 10 9 9 9 8 7 8 8 8 8 7 8 11 13 13 15 16 16 15 15
17 16 15 15 14 14 14 14 14 14 14 15 15 15 14 15 15 16 17 16 15 16 17 16 16 16 15 13 10 10 12 13 14 12 12 12 12 13 14 15 16 17 19 20 19 17 16 15 13 13 14 14 13 12 12 10 9 9 9 9 8 7 9 11 11 11 11 10 10 10 10 10 9 8 9 8 8 8 8 11 14 14 15 17 16 15 15 14
17 16 15 15 15 15 14 14 14 14 15 15 16 15 15 15 15 17 17 15 16 17 17 15 15 15 14 13 12 12 12 12 14 13 12 11 10 11 12 13 15 17 19 19 18 17 17 16 14 13 13 12 12 12 12 10 9 8 8 8 7 6 7 10 11 11 11 10 9 10 11 11 11 11 10 9 9 11 13 17 17 15 15 16 16 16 15 14
17 16 15 15 15 15 14 14 14 14 15 16 16 15 15 14 14 17 17 16 16 18 16 15 15 15 14 14 14 13 12 12 12 13 11 9 9 9 10 11 13 16 17 17 17 17 17 16 14 13 12 12 11 11 12 11 10 9 9 8 6 5 6 8 10 11 10 10 9 11 12 11 11 11 11 11 12 15 18 20 20 17 15 15 14 14 13 12
17 16 15 15 15 15 15 14 14 14 15 16 16 16 15 14 14 16 17 16 17 17 17 15 14 14 15 16 15 13 12 12 11 11 10 9 8 9 10 12 13 14 15 15 15 17 17 15 14 13 12 11 11 10 11 11 11 11 10 8 7 6 5 7 8 8 9 9 9 11 12 11 11 11 12 14 15 16 18 20 20 17 14 14 13 12 11 12
17 16 16 16 16 15 15 15 14 14 15 16 16 16 15 14 15 16 15 16 16 16 16 16 15 14 14 15 15 13 12 11 10 10 9 9 10 9 10 13 13 13 13 13 13 14 16 16 14 13 12 11 10 10 11 11 11 11 10 9 9 9 7 7 7 7 8 8 8 11 13 12 11 13 15 16 16 17 18 18 17 14 12 13 13 12 11 11
17 16 16 17 16 16 15 15 14 14 15 16 16 16 15 15 16 15 14 15 15 15 15 16 16 15 14 14 14 13 12 10 9 9 9 9 9 9 9 11 12 12 12 11 11 13 15 16 15 13 12 11 10 10 11 10 10 11 10 9 9 9 7 6 6 8 8 8 10 13 15 13 13 16 17 17 16 17 18 16 15 13 12 12 12 12 12 12
17 17 17 17 17 16 16 15 15 15 15 15 16 15 15 17 16 14 13 13 15 14 14 15 16 15 15 14 14 13 12 11 9 9 9 9 8 8 7 8 10 11 11 10 10 12 14 15 15 13 12 11 10 10 9 9 9 9 9 9 8 7 5 4 7 9 9 9 11 14 16 15 16 17 17 16 16 16 17 15 13 13 13 12 10 10 11 12
17 17 17 18 18 17 16 16 15 15 15 16 16 16 17 18 16 13 12 12 14 14 13 14 15 15 14 14 13 12 11 10 9 9 10 9 8 7 7 8 9 9 10 10 10 11 12 13 13 12 11 11 11 11 11 9 8 8 8 9 9 9 7 7 8 8 9 9 11 13 15 16 17 17 16 15 14 15 15 14 12 11 11 11 10 9 10 11
19 18 18 19 18 17 17 16 16 16 15 16 16 16 19 19 15 12 11 12 13 13 13 13 14 15 13 13 13 12 10 9 8 8 9 10 9 8 7 8 9 9 9 10 9 10 12 11 11 11 10 10 11 12 13 13 10 9 9 8 9 12 12 11 11 10 9 8 11 13 14 15 16 16 15 15 14 15 15 14 13 12 11 11 10 9 10 10
20 19 19 20 19 18 17 17 16 16 16 16 17 18 20 19 15 11 11 12 12 13 13 12 13 14 13 12 12 11 10 10 9 8 8 9 10 9 9 8 8 8 8 9 9 9 10 9 8 10 9 9 10 11 12 13 12 10 9 8 8 10 12 12 12 12 11 10 11 13 13 14 16 16 16 15 14 14 14 14 14 13 12 11 9 9 10 11
22 21 21 21 20 18 17 17 17 16 16 17 18 19 21 20 16 12 12 12 12 12 13 12 13 14 13 11 11 11 11 11 10 10 9 10 10 10 10 9 7 7 8 8 8 8 8 7 7 8 7 7 8 10 10 10 11 10 8 8 9 9 10 11 12 12 15 14 12 12 12 13 15 16 15 15 14 13 12 11 12 13 12 10 8 9 11 11
24 23 23 22 21 19 18 17 17 17 17 18 20 21 21 20 17 14 13 12 12 12 13 13 13 14 13 12 11 10 10 10 10 10 10 10 11 11 11 10 8 6 7 7 7 6 5 5 6 6 6 5 6 8 9 8 10 11 10 9 9 8 8 9 11 12 15 15 13 12 11 11 13 14 14 14 13 12 11 11 13 14 15 12 10 10 11 10
25 25 24 23 23 21 19 17 17 17 18 19 20 21 22 21 19 16 15 13 12 12 13 14 14 14 13 11 10 10 10 10 10 9 10 10 10 10 11 11 10 7 6 7 6 4 3 3 4 5 4 4 5 7 8 8 9 10 10 9 9 8 7 7 8 11 13 14 14 13 11 10 12 12 14 14 13 13 12 13 15 15 14 13 12 12 11 10
26 26 25 24 24 22 20 18 17 18 18 19 21 22 22 21 20 18 16 15 13 13 14 15 16 15 13 10 10 10 10 11 10 10 10 11 11 11 11 11 11 10 7 7 6 4 2 2 3 4 4 4 5 6 7 7 7 8 9 8 7 7 8 8 7 8 10 12 13 14 12 10 11 12 14 15 14 13 13 13 13 14 13 13 13 12 12 11
27 27 26 25 25 24 21 19 18 18 19 19 21 22 22 21 21 20 18 16 14 14 15 16 17 16 13 11 10 10 11 11 11 10 11 11 11 12 13 12 12 11 8 7 7 5 3 2 2 3 3 3 5 6 6 5 5 6 7 7 6 6 7 8 8 8 9 10 11 13 13 10 10 12 13 14 14 13 12 12 12 12 12 12 13 12 12 11
26 26 27 26 26 24 22 20 19 19 19 20 20 21 22 21 21 20 20 18 16 16 16 17 17 17 15 14 12 11 11 10 10 10 11 11 11 12 13 13 12 11 9 8 7 6 5 3 3 2 2 2 2 2 3 3 3 3 5 6 6 5 5 6 8 9 9 10 10 12 13 11 10 11 12 12 14 13 12 11 11 11 11 11 11 11 11 10
26 26 26 27 26 24 22 21 20 19 20 20 21 21 21 21 21 20 20 19 18 18 18 18 17 17 16 15 14 12 10 9 9 10 10 11 11 13 13 13 13 12 11 10 8 7 7 5 4 3 2 2 2 2 1 1 2 2 3 6 6 5 5 5 5 7 10 11 11 12 13 12 10 10 11 11 11 12 11 11 10 9 10 10 10 9 9 8
25 26 26 27 26 24 22 21 20 19 19 20 21 21 20 20 20 20 19 19 18 18 19 19 18 17 16 15 14 13 11 11 11 11 11 11 12 12 13 13 14 13 12 12 11 10 9 8 6 5 4 4 4 4 3 2 2 2 3 5 5 5 6 5 4 5 8 10 10 10 13 14 11 9 9 9 9 9 9 8 8 8 8 8 8 7 7 7
25 26 26 27 26 24 22 21 20 19 19 20 21 21 20 19 20 20 19 18 18 18 18 19 19 18 17 16 15 14 13 13 13 12 13 13 13 13 13 13 14 14 13 13 12 12 11 10 8 7 6 6 5 5 5 4 3 3 4 5 5 5 6 6 5 6 8 8 7 8 11 13 13 10 9 8 8 8 8 8 8 8 8 8 8 7 7 7
24 26 26 26 25 24 22 21 20 19 19 20 20 20 20 19 20 20 19 18 17 16 16 17 18 17 17 16 16 15 15 14 13 13 13 14 15 14 14 14 14 14 14 14 13 12 13 12 10 9 8 8 7 7 7 7 6 5 5 6 7 7 7 7 6 7 9 8 7 9 10 10 10 9 9 8 6 7 8 8 8 8 7 7 7 7 7 7
25 26 26 26 25 24 22 21 20 20 19 19 20 20 20 19 19 19 19 18 16 16 15 16 17 16 16 16 16 15 15 14 13 13 13 14 15 14 14 14 14 14 15 15 14 13 13 13 12 11 10 10 9 9 9 9 8 7 7 7 9 9 9 8 8 8 9 9 9 9 9 8 8 8 8 8 7 7 8 7 7 7 6 6 5 6 6 7
26 27 26 26 25 24 22 21 20 20 19 19 20 20 20 19 19 19 19 18 17 16 15 15 15 14 14 15 15 15 14 14 13 13 13 14 15 15 14 14 14 14 15 15 14 14 14 14 13 13 12 11 11 11 10 10 9 9 9 9 11 11 10 9 9 9 9 9 10 10 10 10 10 9 9 9 8 8 9 9 8 8 7 7 7 8 9 9
27 27 27 25 24 24 23 22 20 20 19 19 20 20 20 20 20 20 20 19 17 15 14 13 13 13 14 14 15 15 15 15 15 14 14 15 16 16 15 15 15 14 15 15 14 14 14 14 14 14 13 13 12 12 11 10 9 9 9 10 12 13 11 10 10 10 10 10 10 11 12 12 12 12 12 11 11 10 10 9 8 8 8 8 9 9 10 11
Wind_Direction
295 303 309 312 315 318 320 322 322 324 324 324 324 325 326 325 322 320 319 318 317 317 316 317 320 322 321 318 315 316 321 325 328 329 330 331 332 332 332 333 336 336 334 332 330 328 326 325 324 322 320 318 314 308 304 301 297 294 291 287 281 272 259 246 237 232 230 227 223 220 219 216 212 210 210 213 210 207 207 207 207 206 205 204 203 203 204 208
291 300 306 309 314 317 319 320 322 324 326 325 325 327 328 327 325 322 321 320 319 318 317 319 322 324 321 318 318 320 324 328 330 330 331 333 333 334 335 337 339 338 337 335 332 331 330 330 329 327 325 321 317 312 311 308 303 299 296 291 285 275 262 249 239 233 229 226 221 217 215 211 207 205 206 209 208 205 205 205 205 204 204 204 203 203 205 208
288 296 302 307 313 316 318 319 322 325 327 326 326 328 329 328 326 324 322 320 321 320 320 321 324 325 322 321 323 323 326 331 332 332 333 334 335 336 337 340 341 340 340 337 336 335 335 334 333 331 329 325 322 321 320 313 305 301 296 293 286 272 260 248 240 236 231 225 219 215 211 205 202 201 203 207 205 204 204 203 203 202 202 203 203 204 206 208
285 292 298 305 311 314 316 318 322 327 328 327 327 329 330 329 328 326 323 322 322 322 322 324 326 326 323 324 326 326 329 332 333 333 335 336 336 337 339 342 343 344 343 340 340 340 339 338 337 336 334 332 331 331 325 315 311 307 300 298 285 270 259 248 241 236 231 225 218 211 205 200 197 198 202 205 203 202 202 201 200 200 200 202 205 206 206 208
283 289 295 302 308 312 314 317 322 327 329 328 328 330 331 331 329 328 325 324 324 324 324 325 327 326 325 327 327 329 331 333 334 336 337 337 337 338 341 344 346 347 346 344 345 344 344 343 343 343 341 341 342 339 334 334 338 329 319 318 301 284 266 249 239 230 226 221 212 205 200 195 194 197 202 204 201 201 201 199 197 197 199 202 205 207 207 209
280 285 292 300 306 310 313 317 322 328 330 328 329 331 332 332 331 330 327 326 326 326 325 326 328 327 328 329 328 331 333 334 336 339 339 338 338 339 343 346 348 350 349 348 349 350 350 349 350 349 347 350 350 351 360 8 7 358 348 349 336 312 283 251 232 219 214 210 202 198 195 192 193 197 201 203 201 201 199 195 196 197 199 202 205 209 212 211
276 281 289 297 303 308 312 316 322 328 330 329 330 331 332 333 332 331 329 328 328 327 327 327 328 328 331 332 331 333 335 336 339 341 340 340 340 342 347 349 351 353 353 353 353 355 356 355 356 355 354 356 358 10 26 24 20 14 5 5 357 321 299 247 216 207 202 197 193 193 192 191 193 196 200 202 200 199 196 193 196 197 200 205 203 206 215 215
272 277 286 294 300 306 310 315 320 327 330 329 330 330 332 334 333 332 329 329 330 329 328 328 329 330 334 335 334 335 336 338 341 343 343 342 343 346 351 353 352 355 356 356 357 359 360 360 2 2 360 360 4 24 37 32 27 22 14 12 7 352 333 217 200 199 190 187 188 189 190 189 191 194 199 201 199 198 194 192 197 199 202 205 202 198 204 210
270 274 282 290 296 303 308 314 319 325 328 328 329 329 332 334 333 332 329 330 332 331 329 329 329 332 336 337 337 338 338 341 344 346 345 344 345 349 355 357 354 356 358 358 359 2 4 4 7 8 4 1 7 32 42 37 32 29 25 22 16 17 17 136 185 185 178 182 186 187 187 185 188 194 199 200 198 196 194 195 199 202 204 205 204 199 190 201
268 271 279 286 293 299 306 312 316 322 326 327 328 328 331 335 333 331 330 331 333 332 330 329 329 333 337 339 339 340 341 343 347 348 346 344 347 351 356 359 357 357 0 0 1 3 6 7 12 13 8 6 16 42 48 42 38 34 33 31 26 28 31 57 124 157 171 183 184 183 183 182 189 195 200 201 198 196 196 199 202 204 205 202 202 199 189 201
268 269 275 283 288 295 303 309 314 320 324 326 327 327 331 335 333 331 330 333 334 332 329 329 330 333 338 340 341 341 342 345 348 348 346 345 348 353 356 359 359 359 1 3 3 4 7 10 16 19 14 15 30 52 55 50 46 41 38 34 33 41 55 78 98 133 164 183 181 178 181 184 191 194 199 202 199 198 200 206 207 204 202 201 205 205 199 202
268 268 273 279 285 292 300 306 312 318 322 324 324 326 331 334 333 331 330 334 335 332 330 330 330 334 339 343 343 342 344 348 349 348 346 346 349 354 355 358 359 359 1 5 5 5 8 13 19 24 22 22 38 55 60 60 55 50 46 44 49 55 71 90 88 104 152 187 181 179 183 186 192 196 200 204 202 201 206 213 210 203 198 199 207 204 187 196
270 268 271 276 281 288 296 303 309 315 320 320 321 326 331 333 334 332 331 335 336 333 331 330 331 334 340 345 344 343 346 349 348 347 346 347 351 356 356 358 359 357 359 6 8 5 8 15 21 29 28 28 40 49 58 65 62 58 56 62 67 66 78 79 69 83 150 192 178 179 184 183 191 200 205 210 206 204 211 214 206 200 197 199 207 206 188 195
272 270 271 274 279 286 293 300 306 312 316 317 319 325 329 333 335 331 332 337 337 333 331 331 331 333 340 346 344 345 347 347 346 346 347 348 351 357 360 359 359 358 358 5 10 7 9 15 20 30 32 33 39 45 55 62 65 62 60 68 64 74 86 70 66 78 124 175 168 177 180 180 190 196 207 214 205 201 208 208 204 200 200 204 209 215 207 200
274 272 273 275 278 284 291 297 303 309 312 313 317 322 327 334 335 330 333 338 337 334 332 333 332 333 339 344 345 347 346 345 345 346 347 347 350 358 4 4 3 2 360 5 12 11 11 13 17 27 34 38 41 46 55 59 64 64 68 73 60 79 91 65 71 78 93 144 153 168 170 170 181 181 197 202 193 195 204 208 210 207 206 204 200 205 220 208
273 272 273 274 277 283 289 295 300 306 310 310 314 319 325 334 334 330 334 338 337 336 335 335 333 332 338 343 347 347 343 343 343 345 346 346 352 1 6 7 7 6 5 8 15 15 14 13 15 22 29 39 47 49 57 63 62 57 64 76 66 77 80 54 72 88 97 123 137 153 154 154 169 177 190 192 192 198 204 211 216 212 208 203 207 217 196 194
274 272 272 273 275 281 287 292 296 303 307 307 313 317 322 334 334 329 334 338 337 338 337 334 331 331 339 344 345 345 342 341 342 344 345 345 352 0 5 7 9 10 10 13 18 19 17 15 16 20 23 32 50 56 61 62 51 43 52 72 75 77 70 59 72 93 109 128 139 143 119 146 166 181 192 200 202 197 197 207 211 211 212 211 220 217 171 179
274 273 273 273 274 279 283 288 293 300 304 306 312 315 320 332 334 329 333 338 337 338 336 331 329 331 340 343 342 343 340 340 342 345 347 346 352 1 6 8 10 12 13 13 16 19 18 17 18 21 19 21 38 54 60 54 44 48 58 70 77 76 73 71 73 90 117 138 144 133 103 135 163 188 200 210 200 189 190 200 201 205 211 207 205 180 157 176
274 273 274 273 274 277 281 284 290 297 301 305 310 313 318 327 333 330 332 337 336 335 333 330 329 330 338 339 335 337 336 339 345 348 350 349 354 3 6 8 12 12 14 15 14 17 19 20 20 21 20 15 19 34 47 51 51 58 61 65 74 73 70 73 77 88 117 146 144 128 130 135 153 181 207 217 202 198 193 187 180 178 181 167 147 133 142 164
273 273 273 274 274 276 279 282 287 294 299 303 307 311 318 323 329 330 331 334 333 332 332 330 327 326 334 334 329 330 331 338 345 348 353 352 356 6 7 10 15 11 14 16 15 17 19 22 22 21 22 19 17 20 29 40 48 52 52 55 65 69 69 74 81 90 112 146 142 147 150 139 138 156 196 218 214 213 208 198 179 138 138 127 114 122 134 147
272 272 273 273 274 277 279 280 284 292 297 301 305 311 318 322 325 328 329 332 331 332 332 328 324 323 329 331 327 327 327 335 344 347 353 352 357 8 9 12 18 14 13 14 16 19 20 22 23 24 25 25 23 21 22 29 37 45 49 52 58 65 71 80 90 94 108 129 141 160 162 142 132 127 154 209 224 222 227 232 216 129 113 113 112 120 129 142
271 270 271 273 274 277 279 281 284 290 294 299 305 310 317 321 323 325 327 331 332 331 330 326 325 324 327 329 327 326 325 332 341 346 351 351 356 10 13 13 17 18 15 11 16 22 22 23 25 27 29 29 29 25 21 22 27 33 40 47 50 50 61 82 100 106 120 130 136 163 169 141 130 122 124 176 219 227 237 241 228 220 156 95 112 129 129 139
270 269 269 272 274 276 279 281 285 290 294 298 303 308 316 321 322 323 324 330 331 329 329 328 327 326 326 329 328 325 324 329 337 344 352 352 356 10 14 13 13 15 13 12 18 24 25 28 28 30 34 34 34 32 28 23 22 23 27 35 39 41 51 74 100 113 130 141 136 151 163 145 134 137 133 149 174 205 232 231 229 239 246 290 134 141 141 148
270 269 267 269 273 276 278 280 286 291 294 298 302 307 313 319 320 320 321 326 325 324 328 329 328 327 325 327 328 322 322 327 333 343 353 354 358 10 14 12 12 12 11 12 19 25 30 33 32 33 36 38 37 37 38 35 29 24 22 26 33 43 51 57 82 107 126 140 139 138 148 145 145 148 142 147 150 154 169 181 188 186 197 226 173 156 165 167
268 269 269 267 269 274 277 281 286 290 294 298 301 305 311 317 318 316 317 319 319 324 331 330 328 324 320 324 327 320 322 326 333 347 355 356 3 11 14 13 13 13 12 12 18 25 32 35 36 35 36 39 40 38 39 43 41 39 38 37 41 54 58 59 82 107 121 131 132 134 141 144 150 153 146 152 150 144 144 142 143 139 144 171 165 166 178 170
267 268 270 269 267 270 276 282 286 289 294 299 300 305 311 316 316 314 314 317 320 328 334 328 323 319 316 321 325 321 322 324 333 352 359 358 6 12 13 14 16 17 16 16 20 25 29 30 31 33 33 35 39 39 40 46 48 53 68 77 81 87 88 91 101 111 119 125 126 133 145 148 151 153 151 156 149 139 139 132 123 123 141 164 166 171 174 168
267 267 269 271 268 267 273 280 283 287 294 298 299 305 311 314 313 312 314 318 322 329 332 323 317 314 312 316 322 319 319 321 332 354 3 2 6 11 12 14 18 20 20 19 19 21 27 26 23 26 28 30 33 36 41 49 54 60 77 92 98 99 99 99 101 108 120 125 127 135 145 149 154 156 153 151 145 142 145 133 119 127 147 161 170 177 171 165
267 267 268 271 271 269 271 276 281 286 292 295 298 304 309 311 309 310 314 317 320 326 327 320 314 312 310 313 322 321 317 320 333 352 3 3 4 7 10 13 17 20 21 21 16 11 21 25 20 19 22 25 28 33 41 49 58 66 77 92 99 100 98 93 93 99 114 123 128 137 144 147 155 157 150 144 140 140 141 129 124 136 150 155 161 166 161 154
266 269 270 271 273 273 272 274 279 285 289 292 297 302 306 308 308 311 313 313 317 322 323 320 316 314 314 317 324 323 319 320 329 346 1 3 2 4 7 10 18 24 24 24 19 11 17 22 19 18 18 22 27 34 41 46 57 67 75 84 92 98 98 93 90 91 101 114 124 133 139 142 148 146 137 132 131 130 129 132 136 144 153 151 150 150 148 147
266 269 271 272 273 274 273 274 279 284 288 291 295 300 304 306 308 310 310 312 316 318 319 318 318 318 319 320 322 322 321 319 321 335 354 0 1 5 6 6 15 27 29 27 23 16 18 23 23 24 25 25 28 34 39 43 51 61 66 68 70 83 96 99 98 96 101 112 123 134 139 140 140 135 128 125 125 126 133 142 143 144 150 149 146 143 141 146
266 269 273 274 274 274 273 275 278 281 285 289 293 299 302 305 310 310 309 312 314 315 318 318 318 321 320 317 316 317 319 318 316 325 343 353 357 5 5 3 13 25 27 24 23 18 18 22 25 29 37 40 38 39 42 45 48 52 54 51 52 71 91 100 103 102 106 113 122 135 141 140 136 131 129 126 125 130 137 143 144 143 146 145 143 140 140 144
267 271 275 277 276 274 274 274 276 279 283 287 292 296 299 305 310 306 306 311 314 318 323 323 321 323 320 313 312 314 315 315 313 317 329 341 351 358 359 4 17 26 25 21 22 20 19 23 29 34 46 54 53 48 45 44 46 49 51 49 47 61 83 92 96 102 111 114 118 132 139 136 132 128 125 124 125 131 139 143 144 142 140 138 138 139 142 146
268 273 278 279 278 275 274 274 275 278 282 286 290 294 299 306 306 301 306 314 317 321 325 323 321 323 320 313 312 313 311 310 312 314 320 330 345 355 358 8 20 24 25 24 24 23 22 25 33 41 49 55 55 49 43 39 41 44 49 52 52 60 84 92 93 104 116 115 113 126 134 130 126 124 120 119 121 130 141 145 144 143 141 142 146 151 153 153
269 274 279 280 280 277 275 275 276 278 282 285 288 294 300 304 300 300 309 316 319 323 325 322 321 322 320 313 312 316 314 310 312 315 318 326 341 355 3 10 16 16 19 26 25 23 25 27 31 38 45 47 46 44 42 40 40 43 47 52 59 69 86 97 104 115 118 113 112 124 132 130 128 128 123 119 123 133 143 148 149 150 149 148 152 158 160 162
267 274 279 282 282 280 276 276 277 279 282 284 288 294 300 300 297 303 314 318 321 324 324 322 321 323 323 317 313 317 317 313 313 316 319 326 337 352 1 4 9 7 10 21 23 16 21 27 29 33 36 35 34 36 39 41 40 42 47 54 62 66 72 91 120 136 131 119 119 126 132 133 133 135 132 128 131 140 148 152 155 154 151 151 155 160 165 171
266 273 278 282 282 280 278 277 277 279 281 284 288 294 296 293 295 308 319 317 316 319 321 321 321 321 324 321 315 314 314 310 305 306 311 320 331 343 348 347 353 358 0 8 17 13 12 20 26 31 34 30 26 28 30 30 32 35 43 54 59 53 52 89 117 134 139 133 129 131 134 137 137 137 138 139 141 145 149 151 153 153 155 160 163 167 172 173
263 270 277 281 282 280 278 277 277 278 280 282 287 291 290 289 297 314 319 311 310 316 321 322 317 316 320 319 315 314 310 303 297 293 296 305 313 322 328 329 335 348 353 354 4 12 9 10 20 30 36 33 28 29 30 28 31 35 42 54 56 54 74 106 105 109 124 128 131 135 139 142 142 141 143 147 152 156 158 162 164 163 167 173 176 180 180 176
261 267 274 278 279 279 277 276 276 277 280 281 285 286 285 288 299 314 313 307 310 316 321 321 314 312 315 315 312 314 311 301 294 289 289 294 298 301 305 314 324 333 345 347 350 6 8 4 15 27 32 35 35 36 41 45 50 52 52 59 63 64 80 98 95 87 95 109 118 124 133 141 142 142 143 147 157 164 169 177 179 176 178 182 187 191 187 183
261 266 273 277 279 279 277 276 275 277 279 280 281 281 282 287 298 308 307 306 310 316 320 320 314 309 311 313 312 315 314 303 295 292 290 291 292 293 293 299 311 318 330 341 343 358 7 2 13 28 31 35 39 41 46 49 51 57 62 64 67 69 75 84 91 91 88 93 104 110 121 134 137 139 142 145 155 165 174 183 187 184 181 182 191 202 199 190
260 265 270 276 279 279 277 276 276 276 276 277 278 278 281 287 295 302 303 303 307 313 316 315 310 307 309 312 314 316 312 303 298 294 292 291 290 289 288 289 295 305 317 329 337 352 1 360 13 31 35 40 47 50 53 50 48 60 74 70 68 74 75 81 92 98 94 94 99 101 109 124 130 136 140 143 150 160 167 173 176 172 165 164 177 193 196 188
257 263 268 274 277 277 275 274 275 276 275 275 277 279 282 287 293 297 298 297 302 306 309 309 307 306 308 310 309 310 307 302 298 295 292 291 291 290 287 285 283 287 300 311 326 341 347 355 16 30 39 47 54 56 57 53 50 62 79 80 76 77 75 82 92 96 96 99 104 104 108 117 125 129 132 136 142 146 146 144 144 145 143 141 143 151 161 166
255 261 266 272 277 277 275 273 272 273 274 275 277 280 283 287 291 294 293 294 297 300 302 303 302 304 309 308 300 297 298 296 294 294 291 287 290 291 288 284 281 275 275 286 300 319 330 354 12 13 19 35 47 50 51 50 48 59 79 91 93 91 88 91 96 98 99 102 103 105 110 118 123 126 126 129 133 133 133 133 134 137 136 134 134 135 140 145
252 258 264 271 276 277 276 274 271 270 271 272 275 278 281 285 289 290 290 291 292 293 295 297 298 302 306 302 293 289 288 287 286 286 286 283 283 285 282 280 280 276 268 265 273 286 300 337 359 356 3 22 34 35 35 37 41 56 79 94 100 104 106 103 100 102 106 109 107 105 109 117 124 127 125 125 129 129 130 132 135 137 136 135 138 140 141 143
248 255 261 268 273 276 277 275 272 269 269 270 273 276 280 283 286 288 289 289 288 286 287 290 293 297 298 296 294 292 288 286 285 282 280 279 278 277 277 275 274 275 273 264 261 267 273 276 312 335 349 6 21 26 21 16 26 52 80 96 99 106 118 118 113 111 112 116 117 113 113 118 126 130 128 127 130 132 133 137 140 142 143 143 142 142 144 147
245 251 259 265 271 274 275 274 272 270 270 271 273 276 279 282 285 287 289 289 288 284 282 283 287 291 292 292 293 293 289 285 285 282 277 277 276 274 275 275 273 272 269 261 254 257 265 260 250 268 303 329 340 358 9 8 23 64 91 105 108 110 121 125 122 125 127 125 122 120 120 122 128 132 133 134 137 139 142 147 151 152 151 151 148 145 146 148
243 248 256 263 268 271 272 272 271 271 272 273 274 276 279 282 285 286 287 288 287 283 280 279 281 284 285 286 286 286 283 281 283 284 280 278 276 274 273 274 274 271 264 254 246 246 257 262 255 248 237 243 267 270 273 61 86 116 122 123 127 129 135 139 134 139 145 139 128 126 126 126 131 136 138 140 143 145 151 155 159 161 159 157 155 152 150 152
242 247 254 261 266 269 270 270 270 270 271 273 275 277 280 283 285 286 286 286 283 280 279 277 276 276 277 276 276 276 277 278 280 281 279 279 278 275 272 270 270 271 266 258 250 245 250 258 263 258 239 226 231 239 237 193 146 185 184 155 151 151 152 163 161 155 159 151 137 136 138 135 136 142 147 151 155 157 163 167 167 168 168 166 165 163 164 166
243 249 255 261 265 268 269 268 269 269 270 272 274 277 281 283 284 285 285 284 281 278 276 274 273 271 271 270 270 271 272 273 274 273 271 272 274 274 272 269 267 267 266 263 257 251 249 250 254 255 248 236 227 226 236 235 207 204 209 194 185 174 162 171 177 170 172 170 157 153 153 149 149 156 163 167 171 175 180 181 177 175 177 176 175 177 180 183
244 250 256 261 266 268 268 268 268 269 269 271 274 275 279 282 284 285 284 283 280 277 273 270 268 267 267 268 267 266 266 267 269 269 266 266 269 271 271 270 267 265 264 262 260 255 249 246 243 244 244 238 229 226 231 238 237 226 220 218 213 200 183 182 194 190 186 188 180 170 169 166 164 170 178 180 185 191 191 187 184 181 182 184 184 189 197 204
244 250 256 262 266 267 267 267 268 269 270 272 274 275 278 281 283 282 281 279 277 274 269 266 264 263 263 263 262 262 264 267 269 268 266 265 267 270 271 270 267 264 263 260 257 254 249 245 240 236 238 239 236 232 228 229 233 234 233 230 223 215 204 197 201 201 195 197 195 187 185 185 180 183 193 197 203 206 201 199 199 196 195 197 203 214 224 233
244 250 255 261 265 267 267 267 268 270 272 273 273 275 277 279 278 276 275 274 273 272 268 265 264 264 262 260 261 262 264 266 265 264 263 263 264 266 268 266 263 261 262 261 259 255 251 247 242 235 234 236 237 236 232 228 229 233 238 232 222 218 216 211 211 210 203 199 197 194 193 194 191 195 206 214 216 215 212 211 211 212 214 217 223 232 240 246
245 250 255 260 264 265 266 267 269 270 272 272 272 273 276 277 275 273 272 273 275 275 273 270 268 268 266 264 263 262 262 261 260 258 257 258 261 265 267 267 264 262 262 263 263 261 257 253 247 238 233 232 235 237 237 233 229 230 232 227 218 216 216 218 221 220 210 200 199 202 204 202 201 203 209 215 216 216 218 222 225 230 232 234 237 242 247 251
Height
5819 5818 5817 5816 5815 5814 5813 5812 5811 5810 5810 5809 5809 5808 5807 5806 5804 5803 5801 5800 5798 5797 5795 5794 5792 5791 5790 5788 5786 5784 5782 5780 5778 5775 5772 5769 5766 5762 5759 5755 5751 5747 5743 5739 5734 5729 5724 5720 5715 5711 5707 5703 5700 5697 5693 5690 5687 5685 5684 5683 5683 5683 5684 5685 5687 5689 5691 5695 5699 5703 5707 5712 5718 5722 5725 5729 5733 5736 5740 5744 5748 5753 5759 5763 5767 5772 5776 5780
5817 5817 5816 5815 5814 5813 5812 5811 5810 5810 5809 5808 5808 5807 5806 5805 5803 5802 5800 5798 5797 5796 5794 5792 5791 5790 5789 5787 5784 5782 5780 5778 5776 5773 5770 5767 5764 5760 5757 5753 5749 5745 5741 5736 5731 5726 5720 5716 5712 5708 5704 5700 5697 5693 5690 5687 5684 5682 5681 5680 5680 5681 5681 5683 5684 5686 5688 5692 5696 5701 5705 5710 5714 5719 5722 5725 5729 5733 5737 5741 5746 5751 5757 5761 5766 5769 5772 5774
5816 5816 5815 5814 5813 5812 5811 5810 5809 5809 5808 5807 5807 5806 5805 5804 5802 5801 5799 5797 5796 5794 5792 5791 5789 5788 5787 5785 5783 5781 5779 5776 5774 5771 5768 5765 5762 5759 5755 5751 5747 5743 5738 5733 5728 5722 5717 5713 5709 5705 5701 5698 5694 5691 5688 5684 5682 5680 5679 5679 5678 5679 5680 5681 5683 5684 5687 5690 5695 5698 5702 5707 5711 5716 5720 5722 5726 5730 5734 5738 5743 5749 5755 5760 5764 5766 5769 5772
5815 5814 5814 5813 5812 5811 5810 5809 5808 5808 5807 5806 5806 5805 5804 5802 5801 5800 5798 5796 5794 5793 5790 5789 5788 5787 5785 5783 5782 5779 5777 5775 5772 5769 5766 5764 5761 5757 5753 5749 5745 5741 5736 5731 5725 5720 5715 5711 5707 5703 5700 5696 5692 5689 5687 5684 5682 5680 5679 5678 5678 5678 5679 5680 5682 5684 5686 5690 5693 5696 5700 5704 5709 5713 5716 5718 5723 5727 5731 5735 5742 5748 5754 5758 5760 5762 5766 5770
5814 5813 5812 5812 5811 5810 5809 5808 5807 5807 5806 5805 5805 5804 5803 5801 5800 5798 5796 5795 5793 5791 5789 5788 5786 5785 5784 5782 5780 5778 5776 5773 5771 5768 5765 5762 5759 5756 5752 5747 5743 5739 5734 5729 5724 5718 5714 5709 5705 5701 5698 5694 5691 5689 5686 5684 5682 5680 5679 5679 5679 5680 5680 5681 5682 5684 5686 5689 5692 5695 5698 5702 5707 5711 5713 5716 5721 5725 5729 5735 5741 5746 5751 5754 5757 5760 5764 5767
5813 5812 5811 5810 5810 5809 5808 5807 5806 5805 5805 5804 5803 5803 5802 5800 5799 5797 5795 5793 5792 5790 5788 5786 5785 5784 5782 5781 5779 5777 5775 5772 5769 5767 5764 5761 5758 5755 5750 5746 5742 5738 5733 5728 5723 5718 5713 5708 5703 5700 5697 5694 5692 5689 5686 5684 5682 5681 5681 5680 5680 5681 5681 5681 5682 5684 5685 5688 5691 5693 5697 5701 5704 5708 5711 5715 5719 5723 5728 5735 5740 5743 5746 5749 5752 5757 5762 5765
5812 5811 5810 5809 5808 5808 5807 5806 5805 5804 5804 5803 5802 5801 5801 5799 5798 5796 5794 5792 5791 5789 5786 5785 5784 5782 5781 5780 5778 5776 5773 5771 5768 5765 5763 5760 5757 5753 5749 5745 5741 5737 5732 5727 5722 5716 5712 5708 5703 5700 5697 5694 5692 5689 5686 5684 5683 5682 5682 5682 5681 5681 5681 5681 5682 5683 5685 5687 5690 5692 5696 5699 5703 5706 5710 5714 5717 5722 5728 5734 5737 5740 5742 5745 5749 5757 5764 5768
5810 5810 5809 5808 5807 5806 5805 5804 5804 5803 5803 5802 5801 5800 5799 5798 5797 5795 5793 5791 5790 5788 5785 5783 5782 5781 5780 5779 5777 5775 5772 5770 5767 5764 5761 5759 5755 5751 5747 5743 5740 5736 5731 5726 5720 5715 5711 5707 5703 5700 5697 5695 5693 5690 5686 5685 5684 5683 5683 5683 5683 5682 5682 5682 5683 5684 5685 5688 5690 5692 5695 5698 5702 5705 5709 5712 5716 5721 5727 5731 5733 5735 5738 5742 5746 5751 5759 5766
5809 5808 5807 5806 5806 5805 5804 5803 5802 5802 5802 5801 5800 5799 5798 5797 5796 5794 5792 5790 5789 5787 5784 5782 5781 5779 5778 5777 5776 5773 5771 5769 5766 5763 5760 5758 5754 5750 5746 5742 5739 5735 5730 5725 5720 5715 5711 5707 5703 5700 5698 5696 5694 5691 5687 5686 5685 5685 5685 5684 5685 5684 5684 5684 5685 5686 5687 5689 5690 5693 5695 5699 5702 5705 5707 5710 5715 5720 5725 5727 5727 5730 5734 5740 5744 5745 5752 5764
5807 5807 5806 5805 5804 5804 5803 5802 5801 5801 5800 5800 5799 5798 5797 5796 5795 5793 5791 5789 5788 5786 5783 5781 5780 5778 5777 5776 5774 5772 5770 5767 5765 5762 5759 5757 5753 5749 5745 5742 5738 5734 5729 5724 5719 5715 5711 5707 5704 5700 5699 5697 5695 5692 5688 5687 5687 5687 5686 5686 5686 5686 5686 5686 5688 5689 5690 5691 5692 5694 5697 5700 5702 5704 5707 5710 5714 5719 5722 5723 5724 5729 5733 5738 5742 5743 5751 5762
5806 5805 5805 5804 5803 5802 5802 5801 5800 5799 5799 5799 5798 5797 5796 5795 5794 5792 5790 5789 5787 5785 5783 5781 5779 5777 5776 5775 5773 5771 5768 5766 5763 5761 5759 5756 5753 5749 5745 5741 5737 5734 5729 5725 5720 5715 5712 5708 5705 5702 5700 5698 5696 5693 5690 5689 5688 5688 5688 5688 5687 5687 5688 5689 5690 5691 5692 5693 5694 5697 5698 5700 5702 5705 5708 5710 5714 5717 5719 5721 5723 5729 5734 5738 5739 5740 5749 5758
5804 5804 5803 5802 5802 5801 5800 5799 5799 5798 5798 5797 5796 5795 5795 5794 5793 5791 5788 5788 5786 5784 5782 5780 5778 5777 5776 5774 5772 5770 5768 5765 5763 5760 5758 5756 5752 5749 5745 5741 5737 5734 5730 5725 5721 5717 5713 5710 5706 5703 5702 5700 5698 5695 5692 5690 5689 5689 5689 5689 5689 5689 5690 5691 5692 5693 5694 5695 5697 5698 5700 5701 5704 5706 5708 5710 5713 5715 5717 5720 5724 5730 5735 5737 5736 5737 5747 5753
5803 5802 5802 5801 5800 5800 5799 5798 5798 5797 5797 5796 5795 5794 5793 5793 5792 5790 5788 5787 5785 5783 5781 5779 5778 5776 5775 5774 5772 5769 5767 5765 5762 5760 5758 5755 5752 5749 5745 5741 5737 5734 5730 5726 5722 5719 5715 5711 5708 5705 5703 5702 5699 5697 5694 5692 5691 5691 5691 5691 5691 5691 5692 5693 5694 5695 5696 5697 5699 5700 5701 5703 5706 5708 5709 5711 5713 5715 5720 5723 5727 5733 5735 5734 5733 5735 5744 5750
5801 5801 5800 5800 5799 5798 5798 5797 5797 5796 5795 5795 5794 5793 5792 5792 5791 5789 5787 5786 5784 5782 5780 5779 5777 5776 5775 5773 5772 5769 5767 5765 5763 5760 5757 5755 5752 5749 5745 5741 5737 5734 5730 5727 5723 5720 5716 5713 5710 5707 5705 5703 5701 5699 5696 5694 5693 5693 5693 5693 5693 5694 5695 5696 5696 5697 5698 5699 5701 5702 5704 5706 5708 5710 5711 5712 5715 5719 5724 5726 5729 5732 5732 5734 5738 5741 5745 5749
5800 5800 5799 5798 5798 5797 5796 5796 5795 5795 5794 5793 5793 5792 5791 5791 5790 5787 5786 5785 5783 5781 5780 5778 5777 5776 5775 5773 5772 5769 5767 5765 5763 5760 5757 5755 5752 5748 5745 5742 5738 5734 5731 5728 5724 5721 5717 5714 5711 5709 5707 5705 5703 5700 5698 5697 5696 5695 5695 5695 5695 5696 5697 5697 5698 5698 5699 5701 5703 5704 5707 5709 5710 5711 5712 5714 5718 5722 5726 5727 5728 5729 5730 5735 5740 5742 5744 5749
5798 5798 5798 5797 5797 5796 5795 5795 5795 5794 5793 5792 5791 5791 5790 5790 5788 5786 5785 5784 5782 5781 5779 5778 5777 5776 5775 5773 5771 5770 5768 5766 5763 5761 5758 5755 5752 5748 5745 5742 5739 5735 5732 5729 5726 5722 5719 5716 5713 5710 5709 5707 5705 5703 5701 5699 5698 5698 5697 5697 5697 5698 5699 5699 5699 5699 5701 5703 5705 5707 5709 5711 5712 5712 5714 5716 5719 5724 5726 5726 5727 5729 5732 5736 5738 5740 5742 5748
5797 5797 5796 5796 5795 5795 5794 5794 5794 5793 5793 5791 5790 5789 5789 5789 5788 5785 5785 5783 5782 5780 5779 5778 5777 5776 5775 5773 5772 5770 5769 5766 5764 5762 5759 5756 5752 5749 5746 5743 5740 5736 5732 5730 5727 5724 5721 5718 5715 5712 5710 5708 5706 5705 5703 5702 5701 5700 5700 5699 5699 5700 5700 5701 5700 5701 5703 5705 5706 5708 5710 5712 5713 5714 5716 5718 5721 5725 5727 5727 5730 5733 5735 5738 5741 5741 5739 5744
5795 5795 5795 5794 5794 5794 5793 5793 5793 5792 5792 5790 5789 5788 5788 5788 5787 5785 5784 5783 5781 5780 5779 5778 5777 5776 5775 5774 5772 5771 5769 5767 5765 5762 5760 5757 5753 5750 5746 5743 5740 5736 5733 5730 5728 5725 5723 5719 5716 5713 5711 5709 5708 5707 5705 5704 5703 5703 5702 5702 5702 5702 5702 5702 5702 5703 5705 5706 5707 5709 5711 5713 5715 5716 5718 5721 5723 5726 5727 5729 5733 5735 5737 5741 5742 5739 5737 5741
5794 5794 5793 5793 5793 5792 5792 5792 5791 5791 5791 5790 5788 5787 5786 5786 5786 5784 5783 5782 5780 5779 5778 5777 5776 5775 5775 5774 5773 5771 5770 5768 5765 5763 5760 5757 5754 5750 5747 5744 5740 5737 5734 5731 5728 5727 5724 5721 5718 5715 5713 5711 5709 5708 5707 5706 5705 5705 5705 5704 5704 5704 5704 5704 5704 5705 5707 5708 5709 5710 5713 5715 5716 5718 5721 5723 5725 5726 5728 5731 5734 5735 5738 5741 5740 5737 5737 5741
5792 5792 5792 5792 5791 5791 5791 5791 5790 5790 5790 5789 5787 5786 5785 5785 5785 5784 5783 5782 5780 5779 5778 5777 5776 5775 5774 5774 5773 5771 5769 5767 5766 5763 5761 5758 5755 5751 5748 5745 5741 5738 5736 5733 5730 5728 5726 5722 5719 5717 5715 5713 5710 5709 5708 5708 5707 5707 5707 5706 5706 5706 5706 5706 5707 5708 5709 5710 5711 5712 5714 5717 5718 5719 5722 5724 5725 5726 5729 5731 5733 5735 5737 5739 5738 5738 5740 5743
5791 5791 5791 5791 5790 5790 5790 5789 5789 5789 5789 5788 5786 5786 5785 5784 5783 5783 5782 5781 5780 5778 5777 5776 5775 5774 5774 5773 5772 5771 5769 5767 5766 5764 5761 5759 5756 5752 5749 5746 5742 5740 5737 5734 5732 5729 5727 5724 5722 5719 5717 5715 5713 5710 5709 5708 5708 5708 5708 5708 5708 5707 5707 5708 5709 5710 5711 5712 5713 5714 5716 5718 5720 5721 5723 5725 5726 5727 5730 5732 5733 5735 5736 5738 5740 5742 5744 5747
5789 5789 5789 5789 5789 5789 5789 5788 5788 5788 5788 5787 5785 5785 5784 5783 5782 5781 5780 5780 5779 5777 5776 5775 5775 5774 5773 5773 5772 5771 5769 5767 5765 5764 5761 5760 5757 5753 5749 5746 5743 5741 5738 5736 5733 5730 5729 5726 5724 5722 5719 5717 5715 5713 5711 5710 5709 5709 5709 5709 5709 5709 5710 5710 5711 5712 5713 5714 5715 5716 5718 5720 5722 5723 5725 5726 5727 5729 5731 5732 5733 5735 5737 5739 5741 5744 5746 5749
5787 5787 5788 5788 5788 5788 5787 5787 5787 5787 5787 5786 5785 5784 5783 5782 5781 5780 5779 5778 5777 5776 5775 5774 5774 5773 5773 5772 5771 5770 5768 5767 5765 5764 5762 5760 5757 5753 5749 5746 5743 5741 5739 5737 5735 5733 5731 5728 5726 5724 5722 5720 5718 5716 5714 5712 5711 5710 5710 5710 5711 5711 5711 5712 5713 5714 5715 5716 5717 5718 5720 5721 5723 5725 5726 5727 5728 5730 5732 5733 5734 5736 5738 5740 5743 5745 5747 5750
5785 5786 5786 5787 5787 5786 5786 5786 5786 5786 5785 5785 5784 5783 5782 5782 5781 5779 5778 5778 5777 5776 5775 5774 5773 5772 5772 5772 5771 5769 5768 5766 5765 5764 5762 5760 5757 5753 5750 5747 5744 5741 5740 5738 5737 5735 5732 5730 5728 5726 5724 5722 5720 5718 5717 5716 5714 5713 5712 5712 5712 5713 5713 5713 5714 5715 5716 5717 5719 5721 5722 5723 5725 5726 5728 5729 5729 5730 5732 5734 5736 5737 5740 5742 5744 5747 5749 5750
5783 5784 5784 5785 5785 5785 5785 5785 5784 5784 5784 5784 5783 5782 5781 5781 5780 5779 5778 5777 5776 5775 5775 5774 5772 5771 5771 5771 5770 5769 5767 5766 5765 5763 5762 5760 5757 5754 5750 5748 5745 5742 5741 5739 5738 5736 5734 5732 5731 5729 5727 5724 5723 5721 5720 5719 5718 5717 5715 5715 5715 5715 5715 5715 5715 5716 5717 5719 5721 5722 5723 5725 5726 5728 5729 5730 5731 5731 5733 5735 5738 5739 5742 5744 5746 5748 5750 5752
5782 5782 5782 5783 5784 5784 5783 5783 5783 5783 5782 5782 5781 5781 5780 5780 5779 5778 5777 5776 5775 5774 5774 5773 5772 5771 5770 5770 5769 5768 5767 5765 5764 5763 5762 5759 5757 5754 5752 5749 5746 5743 5742 5740 5739 5737 5735 5734 5733 5731 5729 5727 5726 5724 5723 5722 5721 5720 5719 5718 5718 5717 5717 5717 5717 5717 5719 5720 5721 5723 5724 5726 5727 5728 5730 5731 5732 5732 5734 5737 5739 5741 5743 5746 5747 5749 5751 5752
5780 5780 5781 5781 5782 5783 5782 5782 5781 5781 5781 5781 5780 5779 5779 5778 5777 5776 5775 5774 5774 5773 5773 5772 5771 5770 5769 5769 5769 5768 5767 5765 5764 5763 5761 5759 5757 5755 5753 5750 5748 5745 5743 5741 5740 5739 5737 5736 5734 5733 5731 5730 5728 5727 5725 5724 5723 5723 5722 5722 5721 5721 5720 5720 5719 5720 5720 5721 5722 5723 5725 5726 5727 5728 5730 5732 5733 5735 5737 5738 5740 5742 5744 5747 5749 5750 5751 5753
5778 5779 5779 5779 5780 5781 5781 5780 5780 5780 5779 5779 5779 5778 5778 5777 5776 5775 5774 5774 5773 5772 5772 5771 5770 5769 5769 5769 5768 5767 5766 5765 5764 5762 5761 5759 5757 5756 5754 5751 5749 5746 5744 5742 5741 5740 5739 5737 5736 5735 5733 5732 5730 5729 5727 5726 5724 5724 5724 5724 5724 5724 5724 5723 5722 5722 5723 5723 5724 5725 5726 5727 5728 5730 5731 5733 5735 5737 5739 5741 5742 5743 5745 5747 5748 5750 5751 5753
5777 5777 5777 5778 5778 5779 5779 5779 5778 5778 5778 5777 5777 5777 5777 5776 5775 5774 5773 5773 5772 5772 5771 5770 5769 5768 5768 5768 5768 5767 5766 5764 5763 5762 5760 5759 5757 5756 5754 5752 5750 5748 5745 5743 5741 5741 5740 5738 5737 5736 5735 5734 5733 5731 5729 5728 5727 5726 5726 5726 5727 5727 5726 5725 5725 5725 5725 5725 5726 5727 5727 5729 5729 5731 5732 5734 5736 5738 5740 5742 5743 5744 5746 5747 5748 5750 5751 5753
5775 5775 5776 5776 5777 5777 5778 5778 5777 5776 5776 5776 5775 5775 5775 5775 5774 5773 5772 5772 5772 5771 5770 5769 5768 5767 5767 5767 5767 5766 5765 5764 5762 5761 5760 5759 5757 5756 5755 5753 5751 5749 5746 5744 5742 5742 5740 5739 5738 5737 5737 5736 5734 5733 5731 5730 5729 5728 5728 5728 5728 5728 5728 5727 5727 5727 5727 5727 5727 5728 5728 5729 5730 5732 5734 5735 5736 5739 5740 5741 5743 5745 5746 5748 5749 5751 5753 5755
5774 5774 5774 5775 5775 5776 5776 5776 5775 5775 5774 5774 5774 5774 5774 5774 5773 5772 5771 5771 5771 5770 5770 5769 5768 5767 5767 5766 5766 5765 5765 5764 5762 5761 5760 5759 5758 5756 5755 5754 5752 5749 5747 5745 5744 5743 5741 5740 5739 5738 5737 5737 5736 5735 5733 5732 5731 5730 5730 5729 5729 5729 5729 5729 5728 5728 5728 5728 5729 5729 5729 5730 5731 5733 5735 5736 5737 5739 5740 5741 5743 5746 5748 5749 5751 5754 5755 5757
5772 5772 5773 5773 5773 5774 5774 5774 5774 5773 5773 5772 5772 5772 5772 5773 5772 5770 5770 5770 5769 5769 5769 5769 5768 5767 5766 5765 5765 5765 5764 5763 5762 5761 5760 5759 5758 5757 5755 5755 5753 5750 5748 5747 5745 5744 5743 5742 5740 5739 5739 5738 5737 5736 5735 5734 5733 5732 5732 5731 5730 5730 5730 5730 5730 5730 5730 5730 5730 5730 5731 5732 5733 5734 5736 5737 5738 5739 5740 5742 5744 5747 5750 5752 5754 5756 5756 5758
5770 5771 5771 5771 5772 5772 5772 5772 5772 5772 5771 5771 5771 5771 5771 5771 5771 5769 5769 5769 5769 5768 5768 5768 5767 5766 5765 5764 5763 5764 5763 5763 5762 5761 5760 5759 5758 5756 5755 5754 5752 5751 5750 5749 5747 5746 5744 5743 5742 5741 5740 5740 5739 5738 5737 5735 5734 5734 5733 5733 5732 5731 5731 5732 5732 5732 5732 5732 5732 5732 5733 5734 5735 5736 5737 5738 5739 5740 5741 5743 5746 5749 5751 5754 5755 5756 5758 5760
5768 5769 5769 5770 5770 5771 5771 5770 5770 5770 5769 5769 5769 5769 5770 5770 5769 5768 5768 5768 5768 5767 5767 5766 5766 5765 5764 5762 5762 5762 5762 5762 5761 5760 5759 5758 5757 5756 5755 5753 5752 5752 5751 5750 5749 5748 5746 5744 5743 5742 5742 5741 5740 5739 5738 5737 5736 5735 5735 5734 5734 5733 5733 5733 5733 5733 5733 5733 5733 5734 5734 5736 5737 5738 5739 5740 5741 5742 5744 5746 5749 5751 5753 5754 5756 5757 5759 5762
5766 5767 5767 5768 5769 5769 5769 5769 5769 5768 5768 5768 5767 5768 5768 5768 5767 5768 5768 5768 5767 5767 5765 5764 5764 5763 5763 5762 5761 5761 5761 5761 5760 5760 5759 5758 5757 5756 5754 5754 5753 5752 5752 5751 5750 5749 5747 5746 5744 5743 5743 5742 5741 5740 5739 5739 5738 5737 5736 5736 5735 5735 5735 5734 5734 5734 5734 5735 5735 5736 5737 5738 5739 5740 5741 5742 5743 5745 5746 5749 5751 5752 5754 5755 5757 5759 5761 5763
5764 5765 5765 5766 5767 5767 5767 5767 5767 5766 5766 5766 5766 5766 5766 5765 5766 5767 5767 5767 5766 5765 5764 5763 5762 5762 5762 5762 5761 5760 5760 5760 5759 5759 5758 5758 5757 5756 5755 5754 5753 5753 5752 5751 5750 5750 5749 5748 5746 5745 5743 5743 5742 5741 5740 5740 5739 5739 5738 5738 5737 5736 5736 5736 5735 5735 5736 5737 5737 5738 5739 5740 5741 5742 5744 5745 5746 5747 5749 5750 5752 5753 5755 5756 5758 5761 5762 5763
5762 5763 5764 5765 5765 5765 5765 5765 5765 5765 5764 5764 5764 5764 5764 5763 5764 5766 5766 5765 5765 5764 5763 5763 5761 5761 5761 5761 5761 5760 5759 5758 5759 5758 5758 5757 5757 5756 5755 5754 5754 5753 5752 5752 5751 5750 5750 5749 5748 5746 5745 5744 5743 5742 5741 5740 5740 5740 5740 5740 5739 5738 5737 5737 5737 5737 5737 5738 5738 5739 5740 5741 5742 5744 5745 5746 5747 5749 5750 5751 5752 5754 5756 5757 5759 5761 5762 5763
5760 5761 5762 5763 5763 5764 5764 5763 5763 5763 5763 5763 5763 5762 5761 5761 5763 5765 5765 5764 5764 5763 5763 5762 5761 5760 5760 5760 5760 5759 5758 5758 5758 5758 5757 5757 5756 5756 5755 5754 5754 5753 5752 5752 5751 5751 5751 5750 5749 5747 5746 5744 5744 5743 5742 5742 5741 5742 5742 5742 5741 5740 5739 5738 5738 5739 5739 5739 5739 5740 5741 5743 5744 5745 5747 5748 5748 5749 5751 5752 5754 5755 5757 5758 5759 5760 5761 5763
5757 5758 5759 5760 5761 5762 5762 5762 5761 5761 5761 5761 5760 5760 5759 5759 5762 5763 5763 5763 5763 5762 5762 5761 5760 5759 5759 5759 5759 5758 5757 5757 5757 5757 5757 5756 5755 5755 5755 5754 5754 5753 5752 5752 5752 5751 5751 5751 5749 5748 5747 5746 5745 5744 5744 5743 5743 5743 5743 5743 5743 5742 5741 5741 5740 5740 5740 5740 5741 5742 5743 5744 5745 5747 5748 5749 5749 5750 5752 5753 5755 5757 5758 5759 5759 5759 5760 5762
5754 5756 5757 5758 5759 5759 5760 5760 5759 5759 5759 5759 5758 5757 5757 5758 5760 5761 5762 5761 5761 5761 5760 5760 5759 5758 5758 5758 5758 5757 5756 5756 5756 5756 5756 5755 5755 5754 5754 5754 5753 5753 5752 5752 5752 5752 5752 5752 5750 5749 5748 5747 5746 5745 5745 5745 5744 5744 5744 5744 5744 5744 5744 5743 5743 5742 5741 5741 5743 5744 5745 5746 5747 5748 5749 5750 5750 5751 5752 5754 5755 5757 5759 5759 5759 5759 5759 5761
5752 5753 5754 5755 5756 5757 5758 5758 5758 5757 5757 5757 5756 5755 5755 5756 5758 5759 5760 5760 5760 5760 5759 5758 5758 5757 5757 5757 5757 5756 5756 5755 5755 5755 5755 5754 5754 5754 5754 5753 5753 5753 5752 5752 5752 5752 5752 5752 5751 5750 5749 5748 5747 5746 5746 5746 5746 5745 5744 5744 5745 5745 5746 5745 5745 5744 5744 5744 5744 5746 5747 5748 5748 5749 5750 5750 5751 5752 5753 5754 5756 5757 5759 5760 5759 5759 5759 5760
5749 5750 5752 5753 5753 5754 5755 5756 5756 5755 5755 5755 5754 5754 5754 5754 5756 5757 5758 5758 5758 5758 5757 5756 5756 5756 5756 5756 5756 5755 5755 5754 5754 5754 5754 5753 5753 5753 5753 5752 5752 5752 5752 5752 5752 5752 5752 5752 5751 5751 5750 5749 5748 5748 5747 5747 5746 5746 5745 5746 5746 5746 5747 5747 5747 5746 5746 5746 5747 5748 5749 5750 5750 5751 5751 5751 5752 5753 5754 5755 5756 5757 5759 5760 5760 5760 5760 5761
5747 5748 5749 5750 5751 5752 5753 5753 5754 5753 5753 5752 5752 5752 5752 5752 5753 5754 5755 5756 5756 5756 5755 5755 5754 5754 5755 5755 5755 5754 5754 5753 5753 5753 5753 5752 5752 5752 5751 5751 5751 5751 5751 5751 5751 5752 5752 5751 5751 5751 5750 5750 5749 5749 5748 5748 5747 5747 5746 5747 5747 5747 5748 5748 5748 5748 5747 5748 5748 5749 5751 5752 5752 5752 5752 5752 5753 5754 5755 5756 5757 5758 5759 5761 5761 5761 5761 5762
5744 5745 5747 5748 5748 5749 5750 5751 5751 5751 5751 5750 5750 5750 5750 5751 5751 5752 5753 5754 5754 5754 5754 5753 5753 5753 5753 5754 5753 5753 5753 5752 5752 5752 5751 5751 5751 5751 5750 5750 5750 5750 5750 5751 5751 5751 5751 5751 5751 5751 5751 5750 5750 5749 5749 5749 5749 5748 5748 5748 5748 5748 5749 5748 5749 5749 5749 5749 5750 5750 5751 5753 5754 5753 5753 5754 5754 5755 5756 5757 5758 5759 5760 5761 5762 5762 5763 5763
5742 5743 5744 5745 5746 5747 5748 5748 5748 5748 5748 5748 5748 5748 5748 5749 5749 5749 5750 5751 5752 5752 5752 5751 5751 5751 5752 5752 5752 5752 5751 5751 5751 5750 5750 5750 5750 5749 5749 5749 5749 5749 5750 5750 5750 5750 5750 5751 5750 5750 5750 5750 5750 5749 5749 5749 5749 5749 5749 5749 5749 5749 5750 5750 5750 5750 5750 5750 5751 5751 5752 5753 5755 5755 5755 5755 5756 5756 5757 5759 5760 5760 5761 5762 5762 5763 5763 5764
5740 5741 5742 5743 5744 5745 5745 5746 5746 5746 5746 5746 5746 5746 5746 5746 5747 5747 5747 5748 5749 5749 5749 5749 5749 5749 5750 5750 5750 5750 5750 5749 5749 5749 5749 5749 5748 5748 5748 5747 5747 5748 5748 5749 5749 5749 5749 5750 5750 5750 5750 5750 5750 5750 5749 5749 5749 5749 5749 5750 5750 5750 5751 5751 5751 5751 5751 5751 5752 5752 5753 5754 5756 5756 5757 5757 5757 5758 5759 5760 5760 5761 5761 5762 5763 5763 5764 5764
5737 5738 5739 5740 5741 5742 5743 5743 5744 5744 5744 5743 5743 5743 5744 5744 5744 5745 5745 5746 5746 5746 5746 5746 5747 5747 5748 5748 5748 5748 5748 5748 5748 5748 5747 5747 5747 5746 5746 5746 5746 5746 5747 5747 5748 5748 5748 5749 5750 5750 5750 5749 5749 5750 5749 5749 5749 5749 5750 5750 5750 5751 5751 5752 5752 5753 5752 5752 5752 5753 5754 5755 5756 5757 5758 5758 5759 5759 5760 5760 5761 5761 5762 5762 5763 5763 5764 5764
5734 5735 5737 5737 5739 5740 5741 5741 5741 5742 5742 5741 5741 5741 5742 5742 5742 5742 5742 5743 5743 5744 5744 5744 5744 5745 5745 5745 5746 5746 5746 5746 5746 5746 5746 5745 5745 5745 5745 5745 5745 5745 5745 5745 5746 5747 5747 5748 5749 5749 5749 5749 5749 5749 5749 5749 5749 5749 5750 5750 5750 5751 5751 5752 5753 5753 5754 5753 5753 5754 5755 5755 5756 5758 5758 5759 5760 5760 5761 5761 5762 5762 5763 5763 5763 5763 5764 5765
5731 5732 5733 5735 5736 5737 5738 5739 5739 5739 5739 5739 5739 5739 5739 5740 5739 5739 5739 5740 5740 5741 5741 5741 5741 5742 5742 5743 5743 5744 5744 5744 5744 5744 5744 5744 5743 5743 5743 5743 5743 5743 5743 5743 5744 5745 5746 5746 5747 5748 5748 5748 5748 5748 5748 5749 5749 5749 5750 5750 5750 5751 5751 5751 5753 5754 5754 5754 5754 5754 5755 5755 5756 5757 5758 5759 5760 5761 5761 5762 5762 5762 5763 5763 5763 5764 5764 5765
5728 5729 5730 5732 5733 5734 5735 5736 5736 5736 5737 5737 5737 5737 5737 5737 5737 5736 5736 5737 5737 5738 5738 5739 5739 5739 5740 5740 5740 5741 5741 5742 5742 5742 5742 5742 5742 5742 5742 5742 5741 5741 5741 5742 5742 5743 5744 5745 5746 5746 5747 5747 5747 5747 5747 5748 5748 5749 5749 5750 5750 5750 5750 5750 5751 5753 5754 5754 5754 5754 5755 5755 5756 5757 5758 5759 5759 5760 5761 5761 5762 5762 5763 5763 5763 5763 5764 5764
5726 5727 5728 5729 5730 5731 5733 5733 5734 5734 5734 5734 5734 5734 5734 5734 5734 5733 5733 5733 5734 5735 5736 5736 5736 5737 5737 5737 5738 5738 5739 5739 5739 5739 5740 5740 5740 5740 5740 5740 5740 5740 5739 5740 5740 5741 5742 5743 5744 5745 5745 5746 5746 5746 5747 5747 5747 5748 5748 5749 5749 5750 5750 5750 5751 5752 5753 5754 5754 5755 5755 5755 5755 5756 5757 5758 5758 5759 5760 5760 5761 5762 5762 5763 5763 5763 5763 5763
5723 5724 5725 5727 5728 5729 5730 5731 5731 5731 5732 5732 5731 5731 5731 5731 5731 5730 5730 5731 5732 5733 5733 5734 5734 5734 5735 5735 5735 5736 5736 5736 5736 5737 5737 5738 5738 5738 5738 5737 5738 5738 5738 5738 5738 5739 5740 5741 5742 5743 5744 5744 5745 5746 5746 5746 5747 5747 5747 5747 5748 5749 5749 5750 5751 5752 5753 5754 5754 5754 5754 5755 5755 5755 5756 5756 5757 5758 5759 5759 5760 5761 5761 5762 5762 5762 5762 5762